Regional Weather Roundup
Issued by NWS Albany, NY

Home | Current Version | Previous Version | Graphics & Text | Print | Product List | Glossary Off
Versions: 1 2 3 4 5 6 7 8 9 10 11 12 13 14 15 16 17 18 19 20 21 22 23 24 25 26 27 28 29 30 31 32 33 34 35 36 37 38 39 40 41 42 43 44 45 46 47 48 49 50

000
ASUS41 KALY 310610
RWRALY

NEW YORK STATE HOURLY WEATHER ROUNDUP
NATIONAL WEATHER SERVICE ALBANY NY
200 AM EDT MON AUG 31 2015

NOTE: "FAIR" INDICATES FEW OR NO CLOUDS BELOW 12,000 FEET WITH NO
SIGNIFICANT WEATHER AND/OR NO OBSTRUCTIONS TO VISIBILITY.

NYZ032-033-038>043-046>054-057>066-NYZ062>081-310700-
EAST


CITY           SKY/WX    TMP DP  RH WIND       PRES   REMARKS
ALBANY         MOCLDY    68  64  87 SW3       30.02R
GLENS FALLS    FAIR      60  57  89 CALM      30.00S FOG
POUGHKEEPSIE   FAIR      68  66  93 CALM      30.01F FOG
NEWBURGH       CLEAR     72  70  94 W7        30.04F
MONTGOMERY     FAIR      69  67  93 SW6       30.03S FOG
WHITE PLAINS   FAIR      72  66  81 CALM      30.02F
ISLIP          MOCLDY    74  70  87 SW8       30.01F
NEW YORK CITY  MOCLDY    80  66  62 SW9       30.02S
CENTRAL PARK   FAIR      78  67  68 MISG      30.05F
$$

NYZ005>009-017-018-044>046-055-056-310700-
CENTRAL


CITY           SKY/WX    TMP DP  RH WIND       PRES   REMARKS
FULTON         FAIR      61  59  93 CALM      30.01F FOG
SYRACUSE       FAIR      65  64  97 CALM      30.01F
ROME           FAIR      61  60  97 SE3       30.03F
ELMIRA         FOG       63  63 100 W3        30.06S VSB 1/4
BINGHAMTON     FAIR      65  64  97 MISG      30.08F
MONTICELLO     FAIR      66  64  94 CALM      30.08F
$$

NYZ026>034-041>043-310700-
NORTH


CITY           SKY/WX    TMP DP  RH WIND       PRES   REMARKS
WATERTOWN      FAIR      64  58  80 S3        30.00F
FORT DRUM      NOT AVBL
MASSENA        FAIR      61  58  90 SW7       29.97F
SARANAC LAKE   FAIR      50  48  93 CALM      30.03S
PLATTSBURGH    FAIR      61  59  93 CALM      29.97S
$$

NYZ001>004-010>016-019>021-310700-
WEST


CITY           SKY/WX    TMP DP  RH WIND       PRES   REMARKS
NIAGARA FALLS  FAIR      67  65  93 S6        30.02S
BUFFALO        FAIR      67  63  87 S5        30.02F
DUNKIRK        FAIR      72  65  78 S7        30.03F
JAMESTOWN      FAIR      64  63  94 S6        30.09F
WELLSVILLE     FAIR      67  63  87 SW5       30.12F
ROCHESTER      FAIR      65  62  90 SW6       30.02F
PENN YAN       FAIR      67  66  97 SW5       30.05F FOG
$$

             KEY
       WCI = WIND CHILL INDEX
       VSB = VISIBILITY
       HX  = HEAT INDEX
$$



USA.gov is the U.S. government's official web portal to all federal, state and local government web resources and services.